Weather History for Ontario, OR

Change the Weather History Date:

Thursday, June 6, 2013

  Actual Average Record
Temperature  
Mean Temperature 75 °F 65 °F  
Max Temperature 94 °F 80 °F 103 °F (1977)
Min Temperature 56 °F 50 °F 34 °F (1995)
Degree Days  
Heating Degree Days 0 3  
Month to date heating degree days 1 18  
Since 1 June heating degree days 1 18  
Since 1 July heating degree days 5652 5968  
Cooling Degree Days 10 3  
Month to date cooling degree days 24 16  
Year to date cooling degree days 71 52  
Since 1 June cooling degree days 24 16  
Growing Degree Days 25 (Base 50)    
Moisture  
Dew Point 46 °F    
Average Humidity 41    
Maximum Humidity 67    
Minimum Humidity 15    
Precipitation  
Precipitation 0.00 in 0.03 in 0.61 in (1967)
Month to date precipitation 0.00 0.20  
Year to date precipitation 1.94 5.27  
Sea Level Pressure  
Sea Level Pressure 29.90 in    
Wind  
Wind Speed 4 mph (North)    
Max Wind Speed 13 mph    
Max Gust Speed 16 mph    
Visibility 10 miles    
Events      
T = Trace of Precipitation, MM = Missing Value Source: NWS Daily Summary

Daily Weather History Graph

Daily Weather History Graph

Search for Another Location

Airport:

Trip Planner

Search our weather history database for the weather conditions in past years. The results will help you decide how hot, cold, wet, or windy it might be!

Date:

Astronomy

Jun. 06, 2013 Rise Set
Actual Time 6:05 AM MDT 9:28 PM MDT
Civil Twilight 5:30 AM MDT 10:03 PM MDT
Nautical Twilight 4:43 AM MDT 10:50 PM MDT
Astronomical Twilight 3:45 AM MDT 11:49 PM MDT
Moon 4:54 AM MDT (6/6) 7:51 PM MDT (6/6)
Length of Visible Light 16h 33m
Length of Day
15h 22m
Waning Crescent, 3% of the Moon is Illuminated
Jun 6
Waning Crescent
Jun 8
New
Jun 16
First Quarter
Jun 23
Full
Jun 29
Last Quarter

Hourly Weather History & Observations

Time (MDT) Temp. Dew Point Humidity Pressure Visibility Wind Dir Wind Speed Gust Speed Precip Events Conditions
12:53 AM 66.0 °F 46.0 °F 48% 29.93 in 10.0 mi Calm Calm - N/A   Clear
1:53 AM 63.0 °F 48.9 °F 60% 29.93 in 10.0 mi Calm Calm - N/A   Clear
2:53 AM 61.0 °F 46.9 °F 60% 29.93 in 10.0 mi West 4.6 mph - N/A   Clear
3:53 AM 60.1 °F 46.9 °F 62% 29.93 in 10.0 mi WSW 6.9 mph - N/A   Clear
4:53 AM 59.0 °F 46.0 °F 62% 29.93 in 10.0 mi Calm Calm - N/A   Clear
5:53 AM 57.9 °F 45.0 °F 62% 29.95 in 10.0 mi Calm Calm - N/A   Clear
6:53 AM 57.0 °F 46.9 °F 69% 29.96 in 10.0 mi Calm Calm - N/A   Clear
7:53 AM 61.0 °F 46.9 °F 60% 29.97 in 10.0 mi Calm Calm - N/A   Clear
8:53 AM 68.0 °F 48.0 °F 49% 29.97 in 10.0 mi Calm Calm - N/A   Clear
9:53 AM 73.0 °F 46.9 °F 39% 29.97 in 10.0 mi Calm Calm - N/A   Clear
10:53 AM 78.1 °F 48.9 °F 36% 29.96 in 10.0 mi Variable 3.5 mph - N/A   Clear
11:53 AM 81.0 °F 46.0 °F 29% 29.95 in 10.0 mi North 4.6 mph - N/A   Clear
12:53 PM 84.9 °F 43.0 °F 23% 29.94 in 10.0 mi North 6.9 mph - N/A   Clear
1:53 PM 88.0 °F 42.1 °F 20% 29.92 in 10.0 mi NNE 4.6 mph - N/A   Clear
2:53 PM 89.1 °F 46.0 °F 22% 29.90 in 10.0 mi South 5.8 mph - N/A   Clear
3:53 PM 89.1 °F 48.0 °F 24% 29.88 in 10.0 mi SSE 6.9 mph - N/A   Clear
4:53 PM 90.0 °F 46.9 °F 23% 29.85 in 10.0 mi SSE 5.8 mph - N/A   Clear
5:53 PM 93.0 °F 39.0 °F 15% 29.83 in 10.0 mi NE 6.9 mph - N/A   Clear
6:53 PM 93.0 °F 39.0 °F 15% 29.81 in 10.0 mi NNE 6.9 mph - N/A   Clear
7:53 PM 91.0 °F 41.0 °F 17% 29.81 in 10.0 mi NE 3.5 mph - N/A   Clear
8:53 PM 89.1 °F 43.0 °F 20% 29.81 in 10.0 mi NNW 3.5 mph - N/A   Clear
9:53 PM 80.1 °F 46.0 °F 30% 29.82 in 10.0 mi NNW 6.9 mph - N/A   Clear
10:53 PM 78.1 °F 46.0 °F 32% 29.84 in 10.0 mi NW 9.2 mph - N/A   Clear
11:53 PM 79.0 °F 48.9 °F 35% 29.85 in 10.0 mi NNW 9.2 mph - N/A   Clear